DJT301 KEWR-LIMC

Flight info

Callsign DJT301
Flight time N/A
Altitude 35000
Route MERIT DCT HFD DCT PUT DCT WITCH DCT ALLEX N503B ALLRY/M079F350 NATY XETBO DCT TAKAS/N0457F350 DCT ALUTA DCT KORER DCT LEMKA DCT BEBIX DCT VALKU DCT TIS DCT MEBAK DCT GIPNO DCT BALSI DCT OBIGO DCT ROBEX DCT LAPRI DCT MOGBO DCT KODOK DCT TOP M135 ASTIG
Aircraft A21N/M-SDE2E3FGHIRWXY/LB1

Departure

Time 2026-05-07 02:37
Airport Newark Liberty International Airport (KEWR)

Arrival

Time N/A
Airport Milan Malpensa International Airport (LIMC)
Time Latitude Longitude Altitude Speed Heading
2026-05-07 02:15 40.68975 -74.17637 28 ft 0 kts 97°
2026-05-07 02:25 40.68974 -74.17633 27 ft 4 kts 102°
2026-05-07 02:25 40.68976 -74.17646 27 ft 4 kts 89°
2026-05-07 02:25 40.68967 -74.17668 27 ft 4 kts 26°
2026-05-07 02:26 40.68947 -74.17676 27 ft 4 kts 334°
2026-05-07 02:26 40.68926 -74.17661 27 ft 4 kts 353°
2026-05-07 02:26 40.68915 -74.17660 27 ft 4 kts 85°
2026-05-07 02:26 40.68924 -74.17681 27 ft 4 kts 128°
2026-05-07 02:27 40.68929 -74.17689 27 ft 0 kts 128°
2026-05-07 02:30 40.68922 -74.17677 27 ft 3 kts 128°
2026-05-07 02:31 40.68902 -74.17642 7 ft 6 kts 123°
2026-05-07 02:31 40.68876 -74.17578 27 ft 10 kts 116°
2026-05-07 02:31 40.68842 -74.17487 27 ft 12 kts 116°
2026-05-07 02:31 40.68802 -74.17382 28 ft 13 kts 116°
2026-05-07 02:32 40.68808 -74.17298 28 ft 10 kts 35°
2026-05-07 02:32 40.68874 -74.17257 28 ft 11 kts 25°
2026-05-07 02:32 40.68946 -74.17211 27 ft 12 kts 26°
2026-05-07 02:32 40.69024 -74.17160 27 ft 13 kts 26°
2026-05-07 02:33 40.69109 -74.17107 27 ft 14 kts 25°
2026-05-07 02:33 40.69200 -74.17050 27 ft 15 kts 25°
2026-05-07 02:33 40.69297 -74.16989 27 ft 16 kts 26°
2026-05-07 02:33 40.69399 -74.16923 28 ft 17 kts 26°
2026-05-07 02:34 40.69504 -74.16855 28 ft 17 kts 26°
2026-05-07 02:34 40.69614 -74.16785 27 ft 18 kts 26°
2026-05-07 02:34 40.69729 -74.16712 27 ft 19 kts 26°
2026-05-07 02:34 40.69847 -74.16637 26 ft 19 kts 26°
2026-05-07 02:35 40.69969 -74.16559 26 ft 20 kts 25°
2026-05-07 02:35 40.70062 -74.16495 30 ft 9 kts 49°
2026-05-07 02:35 40.70062 -74.16414 27 ft 10 kts 102°
2026-05-07 02:35 40.70013 -74.16371 24 ft 10 kts 201°
2026-05-07 02:36 40.69996 -74.16383 24 ft 1 kts 208°
2026-05-07 02:36 40.69794 -74.16512 26 ft 67 kts 206°
2026-05-07 02:36 40.69173 -74.16906 27 ft 129 kts 206°
2026-05-07 02:36 40.68210 -74.17525 54 ft 172 kts 204°
2026-05-07 02:37 40.67128 -74.18161 606 ft 170 kts 207°
2026-05-07 02:37 40.65978 -74.18513 1185 ft 173 kts 182°
2026-05-07 02:37 40.64758 -74.18365 1743 ft 181 kts 179°
2026-05-07 02:37 40.63466 -74.18230 2146 ft 197 kts 182°
2026-05-07 02:38 40.62031 -74.18142 2588 ft 214 kts 188°
2026-05-07 02:38 40.60605 -74.18727 2971 ft 223 kts 219°
2026-05-07 02:38 40.59559 -74.20265 3286 ft 234 kts 247°
2026-05-07 02:38 40.59251 -74.22380 3885 ft 241 kts 274°
2026-05-07 02:39 40.59784 -74.24487 4657 ft 249 kts 298°
2026-05-07 02:39 40.61035 -74.26077 5468 ft 262 kts 322°
2026-05-07 02:39 40.62808 -74.26857 6235 ft 281 kts 346°
2026-05-07 02:39 40.64814 -74.26663 6940 ft 296 kts
2026-05-07 02:40 40.66770 -74.25606 7629 ft 315 kts 30°
2026-05-07 02:40 40.68382 -74.23572 8306 ft 326 kts 46°
2026-05-07 02:40 40.69831 -74.21239 8994 ft 332 kts 48°
2026-05-07 02:40 40.71295 -74.18853 9674 ft 337 kts 47°
2026-05-07 02:41 40.72801 -74.16453 10283 ft 344 kts 46°
2026-05-07 02:41 40.74382 -74.13979 10645 ft 361 kts 46°
2026-05-07 02:41 40.76049 -74.11391 10979 ft 380 kts 46°
2026-05-07 02:41 40.77796 -74.08675 11274 ft 397 kts 46°
2026-05-07 02:42 40.79622 -74.05841 11560 ft 414 kts 47°
2026-05-07 02:42 40.81525 -74.02891 11829 ft 430 kts 47°
2026-05-07 02:42 40.83469 -73.99877 12069 ft 444 kts 47°
2026-05-07 02:42 40.85496 -73.96725 12322 ft 456 kts 47°
2026-05-07 02:43 40.87565 -73.93507 12730 ft 462 kts 47°